Regional Weather Roundup
Issued by NWS

Home | Current Version | Previous Version | Text Only | Print | Product List | Glossary On
Versions: 1 2 3 4 5 6 7 8 9 10 11 12 13 14 15 16 17 18 19 20 21 22 23 24 25 26 27 28
000
ASUS45 KSLC 231410
RWRUT

UTAH REGIONAL WEATHER ROUNDUP
NATIONAL WEATHER SERVICE SALT LAKE CITY UT
800 AM MDT WED APR 23 2014

UTZ001>011-023>025-231500-

NORTHERN UTAH

CITY           SKY/WX    TMP DP  RH WIND       PRES   REMARKS
DUGWAY         MOSUNNY   35  30  81 N3        30.02
HILL AFB       PTSUNNY   37  32  81 W1        29.99R
LOGAN          SUNNY     39  30  70 E3        29.97R
OGDEN          MOSUNNY   37  29  72 W3        29.98R
PROVO AIRPORT  PTSUNNY   43  25  49 NW18G24   29.99R
SALT LAKE CITY PTSUNNY   41  28  60 NW9       29.99R
VERNAL         MOSUNNY   42  25  50 W10       29.86R
WENDOVER       SUNNY     41  16  36 NW9       30.02R
HEBER CITY     PTSUNNY   36  19  51 N10G17    29.93R WCI  28
WEST JORDAN    SUNNY     39  28  65 NW12      29.99R WCI  32

$$

UTZ012>022-026-027-231500-

SOUTHERN UTAH

CITY           SKY/WX    TMP DP  RH WIND       PRES   REMARKS
BRYCE CANYON   CLOUDY    31  21  66 NW8       29.93R WCI  23
CEDAR CITY     CLOUDY    34  23  64 N6        29.94R WCI  29
MILFORD        CLOUDY    38  26  62 N15       29.97R WCI  29
MOAB/CYNLANDS  SUNNY     50  20  30 W12       29.84R
PRICE          CLOUDY    40  19  43 NW14G22   29.91R WCI  32
ST GEORGE      PTSUNNY   54  18  24 SE8       29.90R

$$

REGIONAL REPORTS     COLORADO/ARIZONA

CITY           SKY/WX    TMP DP  RH WIND       PRES   REMARKS
CRAIG, CO      PTSUNNY   38  33  82 S3        29.87R
GRAND JUNCTION SUNNY     48  30  49 W10       29.80R
RIFLE          CLOUDY    48  16  27 NW20G28   29.83R
MONTROSE       PTSUNNY   53  25  33 NW12      29.81R
CORTEZ         SUNNY     49  26  41 CALM      29.85R
PAGE, AZ       PTSUNNY   53  21  28 NW7       29.85R
GRAND CANYON   CLOUDY    36  13  38 CALM      29.92R
KINGMAN        SUNNY     51   8  17 E9        29.87R
FLAGSTAFF      MOSUNNY   44  18  35 CALM      29.91R

$$

REGIONAL REPORTS    NEVADA/IDAHO/WYOMING

CITY           SKY/WX    TMP DP  RH WIND       PRES   REMARKS
LAS VEGAS, NV  CLOUDY    61  11  14 NW15G25   29.87R
ELY            PTSUNNY   26  21  81 CALM      30.03R
ELKO           SUNNY     26  23  88 CALM      30.04R
POCATELLO, ID  PTSUNNY   36  28  73 SW22      29.96R WCI  25
BURLEY         SUNNY     36  25  64 W21       29.98R WCI  25
EVANSTON, WY   PTSUNNY   28  22  78 W14       29.92R WCI  17
ROCK SPRINGS   PTSUNNY   32  23  69 W22G28    29.86R WCI  19

$$



USA.gov is the U.S. government's official web portal to all federal, state and local government web resources and services.